Location: Alsip
(41.6689°N, 87.7387°W)
Time: 07:31:52
(UTC+00:00)

GEOS 3 Rocket - Pass Details

Date: 31 October 2020
Orbit: 770 x 850 km, 115.0° (Epoch: 03 December)

Event Time Altitude Azimuth Distance (km) Brightness Sun altitude
Exits shadow 02:18:44 24° 302° (WNW) 1,676 5.7 -39.7°
Drops below altitude 10° 02:20:55 10° 314° (NW) 2,465 6.7 -40.1°
Sets 02:23:21 0° 320° (NW) 3,411 7.5 -40.5°
